Weather History for Palacios, TX

Change the Weather History Date:

Wednesday, May 8, 2013

  Actual Average Record
Temperature  
Mean Temperature 74 °F -  
Max Temperature 80 °F 82 °F 92 °F (1943)
Min Temperature 68 °F 68 °F 51 °F (1960)
Cooling Degree Days 8    
Growing Degree Days 24 (Base 50)    
Moisture  
Dew Point 65 °F    
Average Humidity 75    
Maximum Humidity 90    
Minimum Humidity 56    
Precipitation  
Precipitation 0.00 in - - ()
Sea Level Pressure  
Sea Level Pressure 30.00 in    
Wind  
Wind Speed 11 mph (SSE)    
Max Wind Speed 20 mph    
Max Gust Speed 25 mph    
Visibility 10 miles    
Events      
Averages and records for this station are not official NWS values.
T = Trace of Precipitation, MM = Missing Value Source: NWS Daily Summary

Daily Weather History Graph

Daily Weather History Graph

Search for Another Location

Airport:

Trip Planner

Search our weather history database for the weather conditions in past years. The results will help you decide how hot, cold, wet, or windy it might be!

Date:

Astronomy

May. 08, 2013 Rise Set
Actual Time 6:38 AM CDT 8:04 PM CDT
Civil Twilight 6:12 AM CDT 8:30 PM CDT
Nautical Twilight 5:42 AM CDT 9:00 PM CDT
Astronomical Twilight 5:11 AM CDT 9:32 PM CDT
Moon 5:41 AM CDT (5/8) 7:07 PM CDT (5/8)
Length of Visible Light 14h 17m
Length of Day
13h 26m
Waning Crescent, 2% of the Moon is Illuminated
May 8
Waning Crescent
May 9
New
May 17
First Quarter
May 24
Full
May 31
Last Quarter

Hourly Weather History & Observations

Time (CDT) Temp. Dew Point Humidity Pressure Visibility Wind Dir Wind Speed Gust Speed Precip Events Conditions
12:53 AM 69.1 °F 62.1 °F 78% 30.01 in 10.0 mi SSE 10.4 mph - N/A   Clear
1:53 AM 69.1 °F 63.0 °F 81% 29.99 in 10.0 mi SE 9.2 mph - N/A   Clear
2:53 AM 69.1 °F 64.0 °F 84% 29.99 in 10.0 mi SSE 5.8 mph - N/A   Clear
3:53 AM 68.0 °F 64.0 °F 87% 29.98 in 10.0 mi SSE 6.9 mph - N/A   Clear
4:23 AM 69.8 °F 64.4 °F 83% 29.98 in 10.0 mi SSE 5.8 mph - N/A   Mostly Cloudy
4:39 AM 69.8 °F 64.4 °F 83% 29.97 in 10.0 mi SSE 6.9 mph - N/A   Scattered Clouds
4:53 AM 68.0 °F 64.9 °F 90% 29.97 in 10.0 mi SE 6.9 mph - N/A   Partly Cloudy
5:53 AM 69.1 °F 64.9 °F 87% 29.98 in 10.0 mi SSE 8.1 mph - N/A   Clear
6:53 AM 70.0 °F 64.9 °F 84% 30.01 in 10.0 mi SSE 5.8 mph - N/A   Scattered Clouds
7:01 AM 69.8 °F 66.2 °F 88% 30.02 in 10.0 mi SSE 6.9 mph - N/A   Mostly Cloudy
7:17 AM 69.8 °F 66.2 °F 88% 30.01 in 10.0 mi SSE 6.9 mph - N/A   Scattered Clouds
7:53 AM 71.1 °F 66.0 °F 84% 30.02 in 10.0 mi SSE 8.1 mph - N/A   Partly Cloudy
8:53 AM 73.0 °F 64.9 °F 76% 30.04 in 10.0 mi South 10.4 mph - N/A   Clear
9:34 AM 75.2 °F 64.4 °F 69% 30.05 in 10.0 mi SSE 15.0 mph 18.4 mph N/A   Mostly Cloudy
9:41 AM 75.2 °F 64.4 °F 69% 30.05 in 10.0 mi South 12.7 mph - N/A   Scattered Clouds
9:53 AM 75.0 °F 64.0 °F 69% 30.06 in 10.0 mi South 11.5 mph - N/A   Partly Cloudy
10:53 AM 75.9 °F 63.0 °F 64% 30.07 in 10.0 mi South 12.7 mph - N/A   Mostly Cloudy
11:53 AM 78.1 °F 62.1 °F 58% 30.06 in 10.0 mi SSE 15.0 mph - N/A   Scattered Clouds
12:53 PM 79.0 °F 62.1 °F 56% 30.05 in 10.0 mi SSE 12.7 mph 19.6 mph N/A   Clear
1:53 PM 79.0 °F 63.0 °F 58% 30.02 in 10.0 mi SSE 16.1 mph 23.0 mph N/A   Clear
2:53 PM 79.0 °F 63.0 °F 58% 30.01 in 10.0 mi SSE 13.8 mph 21.9 mph N/A   Clear
3:37 PM 78.8 °F 62.6 °F 57% 30.00 in 10.0 mi SE 17.3 mph 25.3 mph N/A   Partly Cloudy
3:53 PM 79.0 °F 64.0 °F 60% 29.99 in 10.0 mi SE 17.3 mph 23.0 mph N/A   Clear
4:53 PM 79.0 °F 64.0 °F 60% 29.97 in 10.0 mi SE 17.3 mph - N/A   Clear
5:53 PM 77.0 °F 64.0 °F 64% 29.97 in 10.0 mi SE 16.1 mph - N/A   Partly Cloudy
6:33 PM 75.2 °F 64.4 °F 69% 29.97 in 10.0 mi SE 18.4 mph - N/A   Mostly Cloudy
6:53 PM 73.9 °F 64.9 °F 73% 29.97 in 10.0 mi SE 16.1 mph 23.0 mph N/A   Mostly Cloudy
7:45 PM 73.4 °F 64.4 °F 73% 29.97 in 10.0 mi SE 12.7 mph - N/A   Scattered Clouds
7:53 PM 73.0 °F 64.9 °F 76% 29.97 in 10.0 mi SE 19.6 mph - N/A   Scattered Clouds
8:12 PM 73.4 °F 66.2 °F 78% 29.97 in 10.0 mi SE 15.0 mph - N/A   Mostly Cloudy
8:50 PM 71.6 °F 66.2 °F 83% 29.97 in 10.0 mi SE 16.1 mph 21.9 mph N/A   Scattered Clouds
8:53 PM 72.0 °F 66.0 °F 81% 29.97 in 10.0 mi SE 11.5 mph 21.9 mph N/A   Partly Cloudy
9:53 PM 72.0 °F 66.9 °F 84% 29.97 in 10.0 mi SE 12.7 mph - N/A   Clear
10:53 PM 72.0 °F 68.0 °F 87% 29.98 in 10.0 mi SE 13.8 mph - N/A   Clear
11:31 PM 73.4 °F 68.0 °F 83% 29.98 in 10.0 mi SE 16.1 mph - N/A   Mostly Cloudy
11:53 PM 73.0 °F 68.0 °F 84% 29.99 in 10.0 mi SE 15.0 mph - N/A   Overcast